• In Denmark
  • List of Countries
  • For 7 days
  • Water Temperature
  • Satellite Maps
  • Weather Map
  • Weather Widgets
  • user-avatar
    Login

    Hourly Weather Prutz

    Today, 20 October, Friday

    Time Temperature Precipitation Wind Pressure Humidity
    00:00 +6°C° 0 mm 2 mps 633 mmHg 59%
    01:00 +6°C° 0 mm 2 mps 633 mmHg 61%
    02:00 +6°C° 0 mm 2 mps 633 mmHg 63%
    03:00 +6°C° 0 mm 2 mps 633 mmHg 65%
    04:00 +6°C° 0 mm 2 mps 633 mmHg 68%
    05:00 +5°C° 0 mm 2 mps 633 mmHg 69%
    06:00 +5°C° 0 mm 2 mps 633 mmHg 70%
    07:00 +5°C° 0 mm 2 mps 633 mmHg 72%
    08:00 +9°C° 0 mm 1 mps 634 mmHg 64%
    09:00 +11°C° 0 mm 1 mps 635 mmHg 55%
    10:00 +14°C° 0 mm 1 mps 636 mmHg 47%
    11:00 +14°C° 0 mm 1 mps 636 mmHg 45%
    12:00 +15°C° 0 mm 1 mps 637 mmHg 43%
    13:00 +15°C° 0 mm 1 mps 637 mmHg 40%
    14:00 +15°C° 0 mm 1 mps 637 mmHg 45%
    15:00 +14°C° 0 mm 1 mps 637 mmHg 49%
    16:00 +14°C° 0 mm 1 mps 636 mmHg 53%
    17:00 +11°C° 0 mm 1 mps 636 mmHg 63%
    18:00 +9°C° 0 mm 1 mps 635 mmHg 72%
    19:00 +6°C° 0 mm 0 mps 635 mmHg 81%
    20:00 +7°C° 0 mm 1 mps 635 mmHg 79%
    21:00 +7°C° 0 mm 1 mps 635 mmHg 77%
    22:00 +7°C° 0 mm 1 mps 635 mmHg 75%
    23:00 +7°C° 0 mm 1 mps 635 mmHg 72%

    Tomorrow, 21 October, Saturday

    Time Temperature Precipitation Wind Pressure Humidity
    00:00 +7°C° 0 mm 1 mps 635 mmHg 69%
    01:00 +7°C° 0 mm 1 mps 635 mmHg 66%
    02:00 +7°C° 0 mm 1 mps 635 mmHg 65%
    03:00 +7°C° 0 mm 1 mps 635 mmHg 64%
    04:00 +6°C° 0 mm 1 mps 635 mmHg 63%
    05:00 +6°C° 0 mm 1 mps 635 mmHg 61%
    06:00 +6°C° 0 mm 1 mps 635 mmHg 60%
    07:00 +6°C° 0 mm 1 mps 635 mmHg 58%
    08:00 +9°C° 0 mm 1 mps 636 mmHg 53%
    09:00 +11°C° 0 mm 1 mps 636 mmHg 47%
    10:00 +13°C° 0 mm 0 mps 637 mmHg 41%
    11:00 +14°C° 0 mm 0 mps 637 mmHg 39%
    12:00 +15°C° 0 mm 1 mps 637 mmHg 37%
    13:00 +16°C° 0 mm 1 mps 637 mmHg 36%
    14:00 +15°C° 0 mm 1 mps 636 mmHg 42%
    15:00 +15°C° 0 mm 1 mps 636 mmHg 48%
    16:00 +14°C° 0 mm 1 mps 635 mmHg 55%
    17:00 +12°C° 0 mm 1 mps 635 mmHg 62%
    18:00 +10°C° 0 mm 1 mps 634 mmHg 68%
    19:00 +8°C° 0 mm 1 mps 634 mmHg 75%
    20:00 +8°C° 0 mm 1 mps 634 mmHg 78%
    21:00 +7°C° 0 mm 1 mps 634 mmHg 81%
    22:00 +7°C° 0 mm 1 mps 634 mmHg 84%
    23:00 +6°C° 0.2 mm 1 mps 634 mmHg 87%

    Day after tomorrow, 22 October, Sunday

    Time Temperature Precipitation Wind Pressure Humidity
    00:00 +6°C° 0.2 mm 1 mps 634 mmHg 90%
    01:00 +6°C° 0.2 mm 1 mps 634 mmHg 92%
    02:00 +6°C° 0.4 mm 1 mps 634 mmHg 93%
    03:00 +6°C° 0.4 mm 1 mps 634 mmHg 94%
    04:00 +6°C° 0.4 mm 1 mps 633 mmHg 94%
    05:00 +6°C° 1.3 mm 1 mps 633 mmHg 95%
    06:00 +5°C° 1.3 mm 1 mps 633 mmHg 95%
    07:00 +5°C° 1.3 mm 1 mps 633 mmHg 95%
    08:00 +4°C° 1.9 mm 2 mps 633 mmHg 95%
    09:00 +4°C° 1.9 mm 2 mps 633 mmHg 94%
    10:00 +4°C° 1.9 mm 2 mps 632 mmHg 94%
    11:00 +4°C° 1.4 mm 2 mps 632 mmHg 93%
    12:00 +3°C° 1.4 mm 2 mps 632 mmHg 93%
    13:00 +3°C° 1.4 mm 2 mps 631 mmHg 92%
    14:00 +2°C° 0.9 mm 3 mps 631 mmHg 92%
    15:00 +1°C° 0.9 mm 3 mps 631 mmHg 92%
    16:00 +1°C° 0.9 mm 3 mps 631 mmHg 92%
    17:00 0°C° 0.7 mm 3 mps 631 mmHg 93%
    18:00 +1°C° 0.7 mm 2 mps 631 mmHg 94%
    19:00 -1°C° 0.7 mm 2 mps 631 mmHg 95%
    20:00 -1°C° 0.6 mm 2 mps 631 mmHg 95%
    21:00 -1°C° 0.6 mm 2 mps 631 mmHg 95%
    22:00 -1°C° 0.6 mm 2 mps 631 mmHg 95%
    23:00 -1°C° 0.4 mm 2 mps 631 mmHg 95%

    23 October, Monday

    Time Temperature Precipitation Wind Pressure Humidity
    00:00 -1°C° 0.4 mm 2 mps 631 mmHg 95%
    01:00 -2°C° 0.4 mm 2 mps 631 mmHg 96%
    02:00 -2°C° 0.2 mm 2 mps 631 mmHg 95%
    03:00 -2°C° 0.2 mm 2 mps 631 mmHg 95%
    04:00 -2°C° 0.2 mm 2 mps 631 mmHg 95%
    05:00 -2°C° 0.4 mm 2 mps 631 mmHg 94%
    06:00 -2°C° 0.4 mm 2 mps 631 mmHg 94%
    07:00 -2°C° 0.4 mm 2 mps 632 mmHg 93%
    08:00 -1°C° 0.7 mm 2 mps 632 mmHg 93%
    09:00 -1°C° 0.7 mm 2 mps 632 mmHg 92%
    10:00 +1°C° 0.7 mm 2 mps 632 mmHg 92%
    11:00 +1°C° 0.6 mm 3 mps 632 mmHg 91%
    12:00 +1°C° 0.6 mm 3 mps 633 mmHg 91%
    13:00 +1°C° 0.6 mm 3 mps 633 mmHg 91%
    14:00 +1°C° 0.4 mm 3 mps 633 mmHg 91%
    15:00 +1°C° 0.4 mm 3 mps 633 mmHg 91%
    16:00 +1°C° 0.4 mm 3 mps 634 mmHg 92%
    17:00 +1°C° 0.4 mm 3 mps 634 mmHg 93%
    18:00 +1°C° 0.4 mm 2 mps 634 mmHg 94%
    19:00 +1°C° 0.4 mm 2 mps 635 mmHg 95%
    20:00 +1°C° 0.1 mm 2 mps 635 mmHg 95%
    21:00 -1°C° 0.1 mm 2 mps 635 mmHg 95%
    22:00 -1°C° 0.1 mm 2 mps 635 mmHg 96%
    23:00 -1°C° 0.1 mm 2 mps 635 mmHg 95%

    24 October, Tuesday

    Time Temperature Precipitation Wind Pressure Humidity
    00:00 -1°C° 0.1 mm 2 mps 635 mmHg 94%
    01:00 -1°C° 0.1 mm 2 mps 635 mmHg 94%
    02:00 -1°C° 0.1 mm 2 mps 635 mmHg 93%
    03:00 -1°C° 0.1 mm 2 mps 635 mmHg 92%
    04:00 -1°C° 0.1 mm 2 mps 636 mmHg 91%
    05:00 +1°C° 0.1 mm 2 mps 636 mmHg 92%
    06:00 +1°C° 0.1 mm 2 mps 636 mmHg 92%
    07:00 +2°C° 0.1 mm 2 mps 636 mmHg 93%
    08:00 +3°C° 0.4 mm 2 mps 637 mmHg 94%
    09:00 +4°C° 0.4 mm 2 mps 637 mmHg 94%
    10:00 +5°C° 0.4 mm 2 mps 637 mmHg 95%
    11:00 +5°C° 0.2 mm 2 mps 637 mmHg 95%
    12:00 +6°C° 0.2 mm 2 mps 637 mmHg 95%
    13:00 +6°C° 0.2 mm 2 mps 637 mmHg 95%
    14:00 +6°C° 0.2 mm 2 mps 637 mmHg 95%
    15:00 +6°C° 0.2 mm 2 mps 637 mmHg 95%
    16:00 +6°C° 0.2 mm 2 mps 637 mmHg 96%
    17:00 +5°C° 0.1 mm 2 mps 638 mmHg 96%
    18:00 +5°C° 0.1 mm 2 mps 638 mmHg 97%
    19:00 +4°C° 0.1 mm 2 mps 638 mmHg 97%
    20:00 +4°C° 0 mm 2 mps 638 mmHg 97%
    21:00 +4°C° 0 mm 2 mps 638 mmHg 97%
    22:00 +4°C° 0 mm 2 mps 638 mmHg 96%
    23:00 +3°C° 0 mm 2 mps 638 mmHg 96%

    25 October, Wednesday

    Time Temperature Precipitation Wind Pressure Humidity
    00:00 +3°C° 0 mm 2 mps 638 mmHg 96%
    01:00 +3°C° 0 mm 2 mps 638 mmHg 96%
    02:00 +3°C° 0 mm 2 mps 638 mmHg 96%
    03:00 +3°C° 0 mm 2 mps 638 mmHg 95%
    04:00 +3°C° 0 mm 2 mps 638 mmHg 95%
    05:00 +3°C° 0 mm 2 mps 638 mmHg 95%
    06:00 +3°C° 0 mm 2 mps 638 mmHg 95%
    07:00 +3°C° 0 mm 2 mps 638 mmHg 95%
    08:00 +4°C° 0 mm 2 mps 639 mmHg 94%
    09:00 +6°C° 0 mm 1 mps 639 mmHg 92%
    10:00 +8°C° 0 mm 1 mps 640 mmHg 91%
    11:00 +8°C° 0 mm 1 mps 640 mmHg 89%
    12:00 +9°C° 0 mm 1 mps 640 mmHg 87%
    13:00 +10°C° 0 mm 1 mps 640 mmHg 85%
    14:00 +9°C° 0 mm 1 mps 640 mmHg 86%
    15:00 +9°C° 0 mm 1 mps 640 mmHg 87%
    16:00 +8°C° 0 mm 1 mps 640 mmHg 88%
    17:00 +7°C° 0 mm 1 mps 640 mmHg 84%
    18:00 +5°C° 0 mm 1 mps 639 mmHg 79%
    19:00 +4°C° 0 mm 1 mps 639 mmHg 75%
    20:00 +4°C° 0 mm 1 mps 639 mmHg 69%
    21:00 +4°C° 0 mm 1 mps 640 mmHg 63%
    22:00 +4°C° 0 mm 1 mps 640 mmHg 57%
    23:00 +4°C° 0 mm 1 mps 640 mmHg 54%
    Show more